Flag for United Kingdom Weather past 2 weeks in Middlesbrough, England, United Kingdom

Now
57 °F

Passing clouds.


Feels Like: 57 °F
Forecast: 60 / 68 °F
Wind: 3 mph from Northwest

Location: Tees-Side

Current Time: Sep 17, 2014 at 2:57:38 AM

Latest Report: Sep 17, 2014 at 1:20 AM


Visibility: 4 mi

Pressure: 30.04 "Hg

Humidity: 88%

Dew point: 54 °F

Location of MiddlesbroughLocation

Historic Weather in Middlesbrough — Graph

°F

Middlesbrough temperature yesterday

Maximum temperature yesterday: 64 °F (at 1:20 PM)
Minimum temperature yesterday: 54 °F (at 7:50 AM)
Average temperature yesterday: 60 °F

Past Weeks' High & Low Weather Summary

 TemperatureHumidityPressure
High72 °F (Sep 4, 1:50 PM)100% (Sep 11, 5:50 AM)30.42 "Hg (Sep 11, 5:50 AM)
Low45 °F (Sep 12, 7:20 AM)43% (Sep 7, 3:50 PM)29.95 "Hg (Sep 6, 4:20 PM)
Average60 °F76%30.16 "Hg
* Reported Sep 2 5:50 AM — Sep 17 1:20 AM, Middlesbrough, Weather by CustomWeather, © 2014

Note: Actual official high and low records may vary slightly from our data, if they occured in-between our weather recording intervals... More about our weather records

Advertising

Middlesbrough weather history for previous 24 hours

 ConditionsComfort  
Time TempWeatherWind HumidityBarometerVisibility
1:20 AM
Sep 17
57 °FPassing clouds.3 mph88%30.04 "Hg4 mi
12:50 AM57 °FPassing clouds.2 mph88%30.04 "Hg4 mi
12:20 AM57 °FPassing clouds.3 mph88%30.04 "Hg4 mi
11:50 PM
Sep 16
57 °FPassing clouds.2 mph88%30.04 "Hg4 mi
11:20 PM57 °FPassing clouds.5 mph88%30.04 "Hg4 mi
10:50 PM57 °FPassing clouds.2 mph88%30.04 "Hg3 mi
10:20 PM57 °FPassing clouds.7 mph88%30.04 "Hg3 mi
9:50 PM57 °FPartly cloudy.7 mph88%30.07 "Hg3 mi
9:20 PM57 °FPartly cloudy.8 mph88%30.07 "Hg3 mi
8:50 PM57 °FPartly cloudy.10 mph88%30.04 "Hg3 mi
8:20 PM57 °FFog.9 mph94%30.04 "Hg3 mi
7:50 PM57 °FBroken clouds.9 mph94%30.04 "Hg3 mi
7:20 PM59 °FBroken clouds.13 mph88%30.04 "Hg2 mi
6:50 PM59 °FHaze.13 mph88%30.04 "Hg2 mi
6:20 PM61 °FHaze.13 mph83%30.01 "Hg3 mi
5:50 PM63 °FHaze.12 mph83%30.01 "Hg3 mi
5:20 PM63 °FHaze.10 mph83%30.01 "Hg3 mi
4:50 PM63 °FPassing clouds.10 mph83%30.01 "Hg4 mi
4:20 PM64 °FScattered clouds.12 mph78%30.04 "Hg4 mi
3:50 PM63 °FScattered clouds.12 mph77%30.04 "Hg4 mi
3:20 PM63 °FScattered clouds.10 mph83%30.04 "Hg3 mi
2:50 PM64 °FPartly sunny.12 mph78%30.04 "Hg3 mi
2:20 PM64 °FBroken clouds.10 mph78%30.04 "Hg3 mi
1:50 PM64 °FBroken clouds.8 mph78%30.04 "Hg3 mi
1:20 PM64 °FScattered clouds.8 mph78%30.04 "Hg3 mi
12:50 PM63 °FBroken clouds.7 mph83%30.04 "Hg3 mi
12:20 PM63 °FPartly sunny.6 mph83%30.04 "Hg2 mi
11:50 AM63 °FPartly sunny.3 mph83%30.07 "Hg2 mi
11:20 AM61 °FPartly sunny.6 mph88%30.07 "Hg2 mi
10:50 AM61 °FPartly sunny.5 mph88%30.07 "Hg2 mi
10:20 AM59 °FScattered clouds.6 mph94%30.07 "Hg1 mi
9:50 AM57 °FFog.2 mph94%30.07 "Hg1 mi
9:20 AM55 °FFog.2 mph100%30.07 "Hg1 mi
8:50 AM55 °FFog.2 mph94%30.07 "Hg1 mi
8:20 AM54 °FFog.3 mph100%30.04 "Hg1 mi
7:50 AM54 °FFog.3 mph94%30.04 "Hg1 mi
Weather by CustomWeather, © 2014

See weather overviewHow to use our weather pages